EW9447 Weather Reports


time (UTC)temp
C
wind
direction
speed
KPH
gust
KPH
rain 1hr
cm
rain 24hr
cm
rain mn
cm
humidity
%
barometer
mb
20260906161546 21 116 6.4 14.5 0.00 0.00 0.00 99 1019.2
20260906160052 21 134 4.8 11.3 0.00 0.00 0.00 98 1018.8
20260906154547 21 114 4.8 9.7 0.00 0.00 0.00 99 1018.7
20260906153051 21 121 6.4 12.9 0.00 0.00 0.00 99 1018.8
20260906151543 21 141 6.4 16.1 0.00 0.00 0.00 99 1018.6
20260906150049 21 160 6.4 12.9 0.00 0.00 0.00 99 1018.7
20260906144546 21 113 8.0 16.1 0.00 0.00 0.00 99 1018.5
20260906143050 21 196 4.8 12.9 0.00 0.00 0.00 99 1018.7
20260906141545 21 146 6.4 12.9 0.00 0.00 0.00 99 1018.6
20260906140053 21 150 6.4 14.5 0.00 0.00 0.00 99 1018.5
20260906134546 21 177 4.8 11.3 0.00 0.03 0.00 99 1018.6
20260906133047 21 140 6.4 16.1 0.00 0.03 0.00 99 1018.3
20260906131559 21 129 4.8 11.3 0.00 0.03 0.00 99 1018.3
20260906130046 20 129 4.8 9.7 0.00 0.03 0.00 100 1018.3
20260906124547 20 115 6.4 12.9 0.00 0.03 0.00 100 1018.3
20260906123050 20 135 4.8 8.0 0.00 0.03 0.00 100 1018.1
20260906121549 20 121 3.2 9.7 0.00 0.03 0.00 100 1017.9
20260906120055 20 0 0.0 8.0 0.00 0.03 0.00 100 1017.8
20260906114552 20 155 0.0 9.7 0.00 0.03 0.00 100 1017.7
20260906113046 20 0 0.0 1.6 0.00 0.03 0.00 100 1017.8
20260906111545 20 0 0.0 0.0 0.00 0.03 0.00 100 1017.8
20260906110045 20 0 0.0 0.0 0.00 0.03 0.00 99 1017.8
20260906104540 20 0 0.0 0.0 0.00 0.03 0.00 99 1017.6
20260906103045 20 0 0.0 0.0 0.00 0.03 0.00 99 1017.4
20260906101550 20 0 0.0 0.0 0.00 0.03 0.00 99 1017.3
20260906100044 20 0 0.0 0.0 0.00 0.03 0.00 99 1017.5
20260906094548 20 0 0.0 0.0 0.00 0.03 0.00 100 1017.3
20260906093055 20 0 0.0 0.0 0.00 0.03 0.00 99 1017.1
20260906091545 20 0 0.0 0.0 0.00 0.03 0.00 99 1017.0
20260906090046 20 0 0.0 0.0 0.00 0.03 0.00 99 1017.0
20260906084553 20 0 0.0 0.0 0.00 0.03 0.00 99 1017.1
20260906083046 20 0 0.0 0.0 0.00 0.03 0.00 100 1017.1
20260906081547 20 0 0.0 0.0 0.00 0.03 0.00 100 1016.8
20260906080053 21 0 0.0 0.0 0.00 0.03 0.00 100 1016.7
20260906074545 21 0 0.0 1.6 0.00 0.03 0.00 100 1016.6
20260906073046 20 0 0.0 0.0 0.00 0.03 0.00 100 1016.7
20260906071547 20 0 0.0 0.0 0.00 0.03 0.00 100 1017.0
20260906070046 20 0 0.0 0.0 0.00 0.03 0.00 100 1017.2
20260906064544 20 0 0.0 0.0 0.00 0.03 0.00 100 1017.3
20260906063053 20 0 0.0 0.0 0.00 0.03 0.00 100 1017.3
20260906061549 20 0 0.0 0.0 0.00 0.03 0.00 100 1017.3
20260906060056 20 0 0.0 0.0 0.00 0.03 0.00 100 1017.2
20260906054548 20 0 0.0 0.0 0.00 0.03 0.00 100 1017.3
20260906053046 21 0 0.0 0.0 0.00 0.03 0.00 100 1017.3
20260906051548 21 0 0.0 0.0 0.00 0.03 0.00 100 1017.1
20260906050047 21 0 0.0 0.0 0.00 0.03 0.00 100 1017.0
20260906044540 21 0 0.0 0.0 0.00 0.03 0.03 100 1017.0
20260906043047 21 0 0.0 0.0 0.00 0.03 0.03 100 1016.9
20260906041550 21 0 0.0 0.0 0.00 0.03 0.03 100 1017.0
20260906040050 21 0 0.0 0.0 0.00 0.03 0.03 100 1017.0
20260906034540 21 0 0.0 0.0 0.00 0.03 0.03 99 1017.0
20260906033046 22 0 0.0 0.0 0.00 0.03 0.03 99 1017.3
20260906031544 22 0 0.0 0.0 0.00 0.03 0.03 99 1017.1
20260906030046 22 0 0.0 0.0 0.00 0.03 0.03 99 1017.2
20260906024550 22 0 0.0 0.0 0.00 0.03 0.03 99 1017.1
20260906023048 22 0 0.0 0.0 0.00 0.03 0.03 98 1017.1
20260906021553 22 0 0.0 0.0 0.00 0.03 0.03 98 1016.8
20260906020045 22 0 0.0 0.0 0.00 0.03 0.03 97 1016.9
20260906014549 22 0 0.0 0.0 0.00 0.03 0.03 97 1016.6
20260906013047 23 0 0.0 0.0 0.00 0.03 0.03 97 1016.3
20260906011555 23 0 0.0 0.0 0.00 0.03 0.03 96 1016.4
20260906010042 23 0 0.0 0.0 0.00 0.03 0.03 96 1016.3
20260906004545 23 0 0.0 0.0 0.00 0.03 0.03 95 1016.0
20260906003044 24 0 0.0 0.0 0.00 0.03 0.03 93 1016.0
20260906001546 25 0 0.0 0.0 0.00 0.03 0.03 92 1015.8
20260906000049 25 0 0.0 0.0 0.00 0.03 0.03 91 1015.8
20260905234547 25 0 0.0 0.0 0.00 0.03 0.03 92 1015.8
20260905233104 26 0 0.0 0.0 0.00 0.03 0.03 90 1015.7
20260905231552 26 0 0.0 0.0 0.00 0.03 0.03 93 1015.7
20260905230048 26 0 0.0 0.0 0.00 0.03 0.03 92 1015.6
20260905224606 26 0 0.0 0.0 0.00 0.03 0.03 92 1015.5
20260905223044 26 0 0.0 0.0 0.00 0.03 0.03 92 1015.5
20260905221542 26 0 0.0 0.0 0.00 0.03 0.03 92 1015.4
20260905220051 26 0 0.0 0.0 0.00 0.03 0.03 92 1015.1
20260905214545 26 0 0.0 0.0 0.00 0.03 0.03 91 1014.7
20260905213054 26 0 0.0 0.0 0.00 0.03 0.03 92 1014.8
20260905211545 26 0 0.0 1.6 0.00 0.03 0.03 92 1015.4
20260905210045 26 0 0.0 0.0 0.00 0.03 0.03 90 1015.5
20260905204544 26 0 0.0 0.0 0.00 0.03 0.03 89 1015.5
20260905203053 27 0 0.0 0.0 0.00 0.03 0.03 87 1015.6
20260905201546 27 0 0.0 1.6 0.00 0.03 0.03 89 1015.7
20260905200050 26 0 0.0 1.6 0.00 0.03 0.03 89 1015.7
20260905194541 26 0 0.0 0.0 0.00 0.03 0.03 91 1015.3
20260905193046 26 0 0.0 0.0 0.00 0.03 0.03 91 1015.5
20260905191549 25 0 0.0 0.0 0.00 0.03 0.03 91 1015.0
20260905190100 25 0 0.0 9.7 0.00 0.03 0.03 92 1014.6
20260905184558 25 0 0.0 17.7 0.00 0.03 0.03 93 1014.5
20260905183047 25 0 0.0 12.9 0.00 0.03 0.03 94 1015.5
20260905181546 24 113 0.0 19.3 0.00 0.03 0.03 95 1015.4
20260905180055 23 120 8.0 19.3 0.00 0.03 0.03 97 1015.5
20260905174555 23 113 8.0 19.3 0.00 0.03 0.03 99 1015.8
20260905173046 22 84 6.4 16.1 0.00 0.03 0.03 100 1016.5
20260905171545 22 13 1.6 12.9 0.00 0.03 0.03 100 1016.9
20260905170045 22 91 6.4 12.9 0.00 0.03 0.03 100 1016.8
20260905164552 22 112 6.4 12.9 0.00 0.03 0.03 100 1017.6
20260905163047 21 91 4.8 9.7 0.00 0.03 0.03 100 1017.9